Regional Weather Roundup
Issued by NWS

Home | Current Version | Previous Version | Text Only | Print | Product List | Glossary Off
Versions: 1 2 3 4 5 6 7 8 9 10 11 12 13 14 15 16 17 18 19 20 21 22 23 24 25 26 27 28 29 30 31 32 33 34 35 36 37 38 39 40 41 42 43 44 45 46 47 48 49 50

000
ASUS43 KLSX 281410
RWRMO

WEATHER SUMMARY FOR MISSOURI
NATIONAL WEATHER SERVICE SPRINGFIELD MO
800 AM CST TUE FEB 28 2017

NOTE: "FAIR" INDICATES FEW OR NO CLOUDS BELOW 12,000 FEET WITH NO
       SIGNIFICANT WEATHER AND/OR OBSTRUCTIONS TO VISIBILITY.
       CURRENT SKY AND/OR WEATHER CONDITIONS ARE NOT AVAILABLE FOR
       CHILLICOTHE AND FARMINGTON.

MOZ001>031-035>038-043-044-053-054-281500-
...NORTHERN AND WESTERN MISSOURI...

CITY           SKY/WX    TMP DP  RH WIND       PRES   REMARKS
KANSAS CTY INT CLOUDY    62  58  86 SW16      29.68R
KANSAS C DTWN  CLOUDY    64  58  80 SW12      29.69R
LEE`S SUMMIT   CLOUDY    63  59  87 SW16      29.72R
ST JOSEPH      CLOUDY    60  58  92 SW13      29.65S
CHILLICOTHE      N/A     61  57  87 S8        29.69S
KIRKSVILLE     CLOUDY    61  56  83 SW15G22   29.70R

$$
MOZ066>068-077>081-088>096-101>105-281500-
...SOUTHWEST MISSOURI...

CITY           SKY/WX    TMP DP  RH WIND       PRES   REMARKS
SPRINGFIELD    CLOUDY    63  59  87 S17       29.82R
JOPLIN         CLOUDY    67  63  87 S26G33    29.78S
BRANSON        CLOUDY    64  59  82 S8        29.88R

$$
MOZ032>034-039>042-045>050-055>058-069>072-281500-
...CENTRAL MISSOURI...

CITY           SKY/WX    TMP DP  RH WIND       PRES   REMARKS
COLUMBIA       CLOUDY    61  57  87 S16       29.78S
JEFFERSON CITY CLOUDY    63  56  78 S9        29.79F
ROLLA          CLOUDY    60  57  89 S14       29.82F
SEDALIA        CLOUDY    64  58  80 S13       29.76R
WHITEMAN AFB   CLOUDY    61  61 100 S13       29.74R
WARRENSBURG    CLOUDY    63  55  77 S10       29.73S
OSAGE BEACH    CLOUDY    62  57  83 S10       29.81S

$$
MOZ051-052-059>065-281500-
...EAST CENTRAL MISSOURI...

CITY           SKY/WX    TMP DP  RH WIND       PRES   REMARKS
ST LOUIS INTL  CLOUDY    59  54  83 S9        29.84F
SPIRIT OF STL  CLOUDY    60  56  86 S9        29.83S
ST CHARLES     CLOUDY    57  56  96 SE8       29.84S

$$
MOZ072>076-082>087-097>100-106>115-281500-
...SOUTH CENTRAL AND SOUTHEAST MISSOURI...

CITY           SKY/WX    TMP DP  RH WIND       PRES   REMARKS
CAPE GIRARDEAU CLOUDY    59  57  93 S14       29.94S FOG
FARMINGTON     CLOUDY    56  55  97 S10       29.90F FOG
POPLAR BLUFF   CLOUDY    60  60 100 S9        29.93S FOG
WEST PLAINS    CLOUDY    59  58  96 S7        29.91S FOG

$$




USA.gov is the U.S. government's official web portal to all federal, state and local government web resources and services.